[Iaude] MPEC L56: 2022 LS1 [a=1.25,e=0.33,i=11.1,H=25.0]

mpec at marsden.cfa.harvard.edu mpec at marsden.cfa.harvard.edu
Tue Jun 7 01:49:19 EDT 2022


M.P.E.C. 2022-L56                                  Issued 2022 June 7, 05:48 UT

     The Minor Planet Electronic Circulars contain information on unusual
         minor planets and routine data on comets.  They are published
    on behalf of Division F of the International Astronomical Union by the
          Minor Planet Center, Smithsonian Astrophysical Observatory,
                          Cambridge, MA 02138, U.S.A.

             Prepared using the Tamkin Foundation Computer Network

                              MPC at CFA.HARVARD.EDU
            URL https://www.minorplanetcenter.net/    ISSN 1523-6714

                                    2022 LS1                                    


Observations:
     K22L01S* C2022 06 05.39599316 15 57.525-01 06 15.44         21.88wUEL056F52
     K22L01S  C2022 06 05.41909416 15 50.574-01 06 57.58         21.40wUEL056F52
     K22L01S  C2022 06 05.43068416 15 47.049-01 07 18.77         21.23wUEL056F52
     K22L01S  C2022 06 05.50362316 15 25.087-01 09 32.70         21.32GVEL056F52
     K22L01S  C2022 06 05.50425316 15 24.902-01 09 33.69         21.43GVEL056F52
     K22L01S |C2022 06 06.05926 16 12 54.16 -01 26 08.7          21.5 GVEL056807
     K22L01S |C2022 06 06.06686 16 12 51.77 -01 26 23.1          21.1 GVEL056807
     K22L01S |C2022 06 06.07447 16 12 49.43 -01 26 39.3          21.6 GVEL056807
     K22L01S KC2022 06 06.24857916 11 56.900-01 33 48.46         21.41GVEL056I52
     K22L01S KC2022 06 06.25160316 11 55.932-01 33 54.83         21.56GVEL056I52
     K22L01S KC2022 06 06.25462616 11 54.953-01 34 00.91         20.95GVEL056I52
     K22L01S KC2022 06 06.25765016 11 53.988-01 34 06.89         21.45GVEL056I52
     K22L01S ^C2022 06 06.45813416 10 52.074-01 40 42.62         21.48GVEL056568
     K22L01S ^C2022 06 06.45988416 10 51.492-01 40 46.31         21.47GVEL056568
     K22L01S ^C2022 06 06.46167416 10 50.905-01 40 49.94         21.40GVEL056568
     K22L01S |C2022 06 07.05884 16 07 51.30 -02 01 07.9          20.7 GVEL056807
     K22L01S |C2022 06 07.06264 16 07 49.98 -02 01 16.4          20.9 GVEL056807
     K22L01S |C2022 06 07.06645 16 07 48.66 -02 01 24.7          21.0 GVEL056807

Observer details:
568 Mauna Kea.  Observer Y. Ramanjooloo.  Measurers R. Weryk, Y. Ramanjooloo,
    R. Wainscoat.  2.24-m University of Hawaii reflector + CCD.
807 Cerro Tololo Observatory, La Serena.  Observers T. Linder, R. Holmes, L.
    Horn.  1.00-m f/10.0 astrograph + CCD.
F52 Pan-STARRS 2, Haleakala.  Observers J. Bulger, T. Lowe, A. Schultz, I.
    Smith, K. Chambers, T. Dukes.  Measurers K. Chambers, S. Chastel, T. de
    Boer, J. Fairlamb, H. Gao, M. Huber, C.-C. Lin, E. Magnier, Y.
    Ramanjooloo, R. Wainscoat, R. Weryk.  1.8-m Ritchey-Chretien + CCD.
I52 Steward Observatory, Mt. Lemmon Station.  Observer G. J. Leonard.
    Measurers E. J. Christensen, D. Fay, J. B. Fazekas, D. C. Fuls, A. R.
    Gibbs, A. D. Grauer, H. Groeller, J. K. Hogan, R. A. Kowalski, S. M.
    Larson, G. J. Leonard, D. Rankin, R. L. Seaman, A. Serrano, F. C. Shelly,
    K. W. Wierzchos.  1.0-m prime focus + CCD.

Orbital elements:
2022 LS1                                                 Earth MOID = 0.0216 AU
Epoch 2022 Aug. 9.0 TT = JDT 2459800.5                  Veres                   
M 351.43149              (2000.0)            P               Q                  
n   0.70752217     Peri.  261.51078     +0.94765515     +0.25535179             
a   1.2473146      Node    83.53144     -0.15899061     +0.89800938             
e   0.3327977      Incl.   11.12315     -0.27689654     +0.35829404             
P   1.39           H   25.04          G   0.15           U   7                  
Residuals in seconds of arc
220605 F52  0.1-  0.0     220606 807  0.2-  0.3+    220606 568  0.0   0.0
220605 F52  0.2+  0.0     220606 807 (0.4+  0.8-)   220606 568  0.0   0.0
220605 F52  0.1-  0.0     220606 I52  0.1-  0.0     220606 568  0.0   0.0
220605 F52  0.0   0.1-    220606 I52  0.0   0.3-    220607 807  0.3+  0.1-
220605 F52  0.1+  0.1+    220606 I52  0.1-  0.2-    220607 807  0.0   0.1-
220606 807  0.2+  0.4-    220606 I52  0.1+  0.1-    220607 807  0.3-  0.1+

Ephemeris:
2022 LS1                 a,e,i = 1.25, 0.33, 11                  q = 0.8322
Date    TT    R. A. (2000) Decl.     Delta      r    Elong.  Phase     V
2022 05 08    17 02 42.6 +01 39 20   0.3081  1.2718   144.2    27.7    24.2
...
2022 05 23    16 51 57.2 +02 01 35   0.1990  1.1943   153.9    21.9    23.0
...
2022 05 31    16 35 23.8 +00 52 58   0.1477  1.1514   157.2    19.9    22.2
...
2022 06 06    16 13 08.6 -01 24 48   0.1127  1.1189   156.5    21.2    21.6
2022 06 07    16 08 07.3 -01 59 34   0.1072  1.1135   155.9    21.9    21.5
2022 06 08    16 02 35.7 -02 38 51   0.1018  1.1081   155.1    22.7    21.4
...
2022 06 14    15 13 46.9 -08 45 12   0.07237 1.0755   144.8    33.0    20.9
...
2022 06 22    12 42 02.3 -24 18 15   0.04901 1.0326   108.2    69.2    21.0
...
2022 07 07    07 40 17.1 -23 25 14   0.09159 0.9565    46.9   129.1    25.4

M. P. C. Staff               (C) Copyright 2022 MPC           M.P.E.C. 2022-L56




More information about the Iaude mailing list